RH
11 10 11 12 12 12 12 12 12 11 11 11 11 12 13 14 15 17 18 17 13 8 7 8 7 7 8 8 10 10 9 9 9 11 12 13 14 15 16 17 18 19 21 21 22 22 21
12 11 11 11 11 11 11 12 12 12 12 11 12 12 14 14 15 17 18 18 15 12 7 7 7 8 8 10 11 10 10 10 10 11 13 12 13 14 15 16 16 19 19 19 20 20 21
16 14 13 12 12 11 11 12 12 11 11 11 12 13 14 15 15 15 18 18 17 14 11 8 7 7 8 11 11 10 11 11 11 12 12 12 13 14 15 15 17 17 16 18 19 19 20
14 14 14 13 13 13 13 13 12 11 11 12 12 13 15 16 16 16 17 18 18 17 14 10 9 8 10 10 11 11 11 12 12 12 12 13 13 14 16 16 14 15 15 15 19 20 20
21 17 14 13 15 16 16 16 13 13 13 13 13 14 16 15 15 16 17 18 19 18 17 15 11 10 13 11 11 12 12 12 12 12 12 12 13 15 15 14 13 14 13 15 19 21 22
24 24 23 22 22 21 20 20 16 16 15 13 14 15 16 15 16 17 18 19 19 18 17 17 15 13 14 13 12 12 12 12 12 13 14 14 14 15 15 14 15 14 13 16 15 20 23
21 21 19 19 21 22 20 18 17 16 15 14 14 16 17 16 16 17 18 19 19 18 17 18 17 16 15 15 13 14 14 14 13 14 15 16 15 14 15 15 14 15 16 16 19 19 22
23 22 21 20 19 18 17 16 16 15 14 14 14 16 18 18 17 18 19 20 20 18 18 18 18 18 18 17 15 14 15 16 16 17 16 16 15 17 19 20 20 21 21 21 22 23 23
28 23 24 22 20 19 18 16 16 16 15 15 14 15 16 18 18 18 18 20 18 16 16 18 18 18 18 17 16 15 15 15 16 18 18 15 18 20 21 22 22 21 21 20 19 21 24
46 37 30 25 24 23 22 20 18 17 16 16 16 16 16 15 16 18 19 20 20 18 17 18 21 20 18 18 19 17 16 16 18 18 19 18 20 22 23 23 23 22 22 24 26 26 25
70 64 56 42 31 27 24 23 22 21 19 18 16 15 15 15 16 18 19 20 21 21 41 23 23 21 19 20 20 21 20 19 20 21 20 19 22 25 27 27 27 28 31 32 33 32 35
83 79 74 65 57 46 34 30 26 23 22 21 20 19 19 19 19 19 20 21 22 29 41 27 28 26 25 24 24 23 23 22 22 24 26 28 33 33 34 35 36 36 36 35 37 38 44
91 90 86 80 72 65 58 47 35 32 29 27 25 24 23 23 23 23 24 25 29 34 26 28 31 33 33 32 32 32 32 32 32 37 32 32 35 39 40 40 40 40 39 42 41 51 39
95 93 90 89 83 76 69 63 58 52 42 35 33 31 30 30 29 29 29 30 37 34 30 32 32 33 33 33 34 35 36 34 38 36 36 39 42 42 42 44 42 44 42 42 40 40 39
98 97 97 94 94 88 83 77 71 64 58 53 51 48 42 37 35 34 35 38 39 35 36 39 39 38 37 39 38 37 37 38 41 42 40 41 38 42 42 44 45 45 50 50 50 45 51
100 99 98 98 98 94 90 86 81 76 70 62 58 55 55 52 50 48 45 44 41 42 42 42 40 40 39 40 40 40 38 43 46 47 46 43 40 41 45 43 45 48 49 53 58 70 62
99 98 97 99 99 97 95 90 87 84 79 73 66 60 59 57 56 54 55 52 52 56 55 51 49 47 47 45 46 45 43 48 47 48 47 46 43 43 44 46 45 48 54 61 63 66 69
99 97 99 99 98 98 98 95 91 88 84 79 73 69 64 62 61 61 58 56 59 59 59 58 56 53 51 51 49 48 47 48 50 47 45 46 45 44 41 46 51 57 59 61 60 66 63
95 97 94 98 98 98 98 96 96 93 88 82 76 71 70 68 64 62 65 63 61 61 61 59 58 58 57 54 50 49 50 52 50 49 48 46 47 54 55 59 61 60 60 60 57 55 51
76 91 96 97 96 97 99 95 92 93 87 84 77 70 67 65 64 62 63 64 62 62 60 59 58 58 58 57 55 51 51 52 51 50 49 50 54 59 66 66 62 59 58 54 51 52 37
61 61 89 96 93 95 99 96 99 92 89 81 75 70 67 64 64 63 61 59 62 61 62 62 61 61 59 56 55 54 55 55 54 55 56 60 66 67 64 60 58 55 52 46 41 35 37
48 42 56 64 83 85 91 96 96 97 83 77 77 76 67 66 67 64 63 64 64 65 62 59 55 49 50 49 46 46 52 52 51 59 71 73 70 64 60 58 52 47 42 39 35 32 29
42 44 42 54 57 72 87 95 95 98 95 78 76 79 75 70 69 68 67 67 66 61 56 52 47 45 46 48 50 49 47 56 64 67 72 68 66 63 49 54 46 36 38 33 31 31 30
54 43 42 41 44 41 70 82 99 93 97 92 85 73 70 76 71 71 73 72 68 64 58 54 50 47 50 50 50 50 54 62 66 68 67 65 62 57 53 45 43 47 41 39 38 37 37
31 38 42 44 42 43 55 77 84 98 94 96 89 80 78 72 70 77 75 73 67 60 56 52 56 53 51 52 58 60 58 58 64 64 65 61 55 49 45 44 32 45 42 39 38 35 40
37 33 30 33 30 45 59 64 69 75 95 85 90 86 76 69 63 70 67 65 62 62 63 63 61 64 61 66 68 65 71 56 61 65 62 55 52 45 47 42 31 38 37 38 42 44 43
35 33 31 29 31 34 44 55 75 86 90 86 91 87 81 79 73 68 70 69 67 69 62 65 66 68 72 72 73 68 61 62 58 57 59 55 53 49 45 44 39 42 42 44 47 41 46
21 25 26 25 27 27 42 59 65 65 76 91 92 87 83 78 82 74 71 73 67 65 69 74 70 70 69 69 63 65 61 58 53 54 55 48 44 47 46 48 47 42 41 42 45 49 46
17 20 18 17 20 24 36 66 66 67 78 90 89 76 80 84 82 79 65 63 62 60 65 66 70 72 73 73 66 61 60 57 53 45 46 43 37 35 32 34 36 40 45 48 46 43 44